www.pogodaiklimat.ru

Погода и климат >> Архив погоды >> Иран >> Birjand


ПОГОДА в Birjand

  • Прогноз погоды в Birjand
  • Монитор погоды в Birjand
  • Климат города

АРХИВ ПОГОДЫ в Birjand

Время (UTC), дата Ветер
(напр.,м/с)
 
Видим.   Явления Облачность Т
(С)
Тd
(С)
f
(%)
Тe
(С)
Тes
(С)
Комфортность P
(гПа)
Po
(гПа)
Тmin
(С)
Tmax
(С)
R
(мм)
R24
(мм)
S
(см)
21 10.10 штиль 0 10 км ясно +16.4 -4.7 23 +16 +16 1007.2 849.5
00 11.10 штиль 0 12 км ясно +16.2 -5.6 22 +16 +16 1007.3 849.5
03 11.10 В 3 10 км ясно +14.8 -6.0 23 +14 +15 1009.7 850.3 +12.1
06 11.10 штиль 0 10 км ясно +27.5 -5.6 11 +24 +36 комфорт 1008.3 850.7
09 11.10 З 5 10 км 1/1 1000 м
[Cu hum]
+28.2 -7.6 9 +25 +30 комфорт 1006.9 849.0
12 11.10 З 5 10 км 1/1 1000 м
[Cu hum]
+28.0 -10.8 7 +24 +25 комфорт 1007.0 848.9
15 11.10 С 3 10 км ясно +22.5 -8.0 12 +21 +21 комфорт 1010.2 849.9 +29.0
18 11.10 штиль 0 10 км ясно +21.1 -10.2 11 +20 +20 1007.9 850.7
21 11.10 ЮВ 3 10 км ясно +11.6 -11.2 19 +11 +11 1008.4 850.5
00 12.10 ЮВ 4 10 км ясно +9.6 -10.6 23 +8 +8 1010.6 850.3
03 12.10 ЮВ 3 10 км ясно +8.7 -9.5 26 +7 +7 1013.2 850.9 +8.3
06 12.10 штиль 0 10 км ясно +24.1 -7.1 12 +22 +33 комфорт 1010.0 851.7
09 12.10 СЗ 3 12 км 1/1 1000 м
[Cu hum]
+28.2 -12.8 6 +24 +33 комфорт 1009.3 849.7
12 12.10 СЗ 6 10 км 1/1 1000 м
[Cu hum]
+28.2 -10.7 7 +24 +25 комфорт 1009.4 849.3
15 12.10 штиль 0 10 км ясно +21.2 -10.5 11 +20 +20 1012.6 850.1 +29.1
18 12.10 В 3 10 км ясно +15.2 -10.2 16 +15 +15 1010.5 850.7
21 12.10 ЮВ 3 10 км ясно +12.0 -10.2 20 +11 +11 1009.1 850.3
00 13.10 В 4 10 км ясно +12.5 -9.5 21 +11 +11 1009.2 849.9
03 13.10 В 4 10 км ясно +13.7 -8.6 20 +13 +13 1011.3 850.3 +11.7
06 13.10 В 6 10 км ясно +25.7 -8.2 10 +23 +26 комфорт 1009.7 850.4
09 13.10 СЗ 2 10 км ясно +29.1 -8.4 8 +25 +37 комфорт 1007.1 848.2
12 13.10 З 9 12 км ясно +29.3 -11.8 6 +25 +25 комфорт 1005.4 846.9
15 13.10 З 3 10 км ясно +22.6 -12.2 9 +20 +20 1007.7 847.5 +30.4
18 13.10 ЮВ 2 10 км ясно +15.4 -10.1 16 +16 +16 1007.9 848.9
21 13.10 ЮВ 2 10 км ясно +11.7 -11.5 18 +11 +11 1007.6 848.6
00 14.10 В 3 10 км ясно +8.7 -11.1 23 +7 +7 1008.5 848.7
03 14.10 В 2 10 км ясно +9.0 -10.9 23 +8 +8 1012.1 850.1 +7.4
06 14.10 штиль 0 10 км ясно +23.4 -7.6 12 +21 +32 комфорт 1010.5 850.5
09 14.10 СЗ 5 10 км ясно +27.0 -11.7 7 +23 +29 комфорт 1008.5 848.8
12 14.10 СЗ 8 10 км ясно +26.4 -12.4 7 +23 +23 комфорт 1008.8 848.2
15 14.10 С 6 10 км ясно +20.3 -10.9 11 +19 +19 1011.6 849.1 +27.4
18 14.10 В 2 10 км ясно +14.0 -11.2 16 +14 +14 1010.3 850.0
21 14.10 ЮВ 3 10 км ясно +8.6 -12.5 21 +7 +7 1010.1 849.9
00 15.10 В 2 10 км ясно +6.6 -11.5 26 +5 +5 1011.2 849.6
03 15.10 ЮВ 2 10 км ясно +7.4 -10.8 26 +6 +6 1014.0 850.6 +5.4
06 15.10 ЮВ 2 10 км ясно +23.1 -9.1 11 +21 +29 комфорт 1011.8 851.2
09 15.10 СЗ 5 12 км ясно +25.7 -8.2 10 +23 +29 комфорт 1010.4 849.4
12 15.10 З 7 10 км ясно +26.8 -10.2 8 +23 +24 комфорт 1009.6 848.4
15 15.10 штиль 0 10 км ясно +19.8 -10.4 12 +19 +19 1012.5 849.3 +27.3
18 15.10 В 3 10 км ясно +12.0 -12.0 17 +11 +11 1011.0 850.0
21 15.10 В 5 10 км ясно +11.6 -10.6 20 +10 +10 1009.7 849.5
00 16.10 ЮВ 2 10 км ясно +9.2 -11.0 23 +8 +8 1010.1 849.5
03 16.10 ЮВ 4 10 км ясно +7.9 -9.7 28 +5 +6 1013.9 850.6 +6.8
06 16.10 штиль 0 12 км ясно +25.7 -9.5 9 +23 +34 комфорт 1010.9 850.6
09 16.10 ЮЗ 2 15 км ясно +27.6 -9.6 8 +24 +35 комфорт 1008.0 848.5
12 16.10 СЗ 8 15 км ясно +27.8 -13.1 6 +24 +24 комфорт 1007.0 847.1
15 16.10 З 5 10 км ясно +21.8 -12.5 9 +20 +20 1010.2 848.0 +27.8
18 16.10 В 3 10 км ясно +11.9 -15.0 14 +11 +11 1008.7 848.6
21 16.10 В 7 10 км ясно +13.7 -13.3 14 +12 +12 1006.4 847.5
00 17.10 В 5 10 км ясно +13.4 -13.6 14 +12 +12 1005.5 846.9
03 17.10 В 2 10 км ясно +11.5 -13.4 16 +11 +11 1008.4 847.3 +10.4
06 17.10 З 5 10 км ясно +24.8 -10.2 9 +22 +26 комфорт 1008.9 848.6
09 17.10 З 9 10 км ясно +26.7 -10.3 8 +23 +24 комфорт 1006.8 847.8
12 17.10 З 9 10 км ясно +25.9 -12.2 7 +23 +23 комфорт 1007.1 847.8
15 17.10 СЗ 3 10 км ясно +19.3 -13.2 10 +19 +19 1011.2 849.1 +27.4

 

Местоположение метеостанции Birjand (Иран): широта 32.87 долгота 59.20 высота над уровнем моря 1491 м.

В архиве по умолчанию представлена погода в Birjand за последнюю неделю. Архивные данные за месяц целиком и за предыдущие месяцы, начиная с января 2011 года, Вы можете получить, выбрав интересующий диапазон дат из раскрывающегося списка и нажав кнопку "Ввод!".

Внимание! Время в таблицах - всемирное. Для получения местного времени необходимо прибавить поправку, которая в Birjand равна 3.5 ч.

Смотрите также архив погоды в соседних городах и на ближайших метеорологических станциях:

Погода в Ferdous (Иран) (160 км)
Погода в Nehbandan (Иран) (168 км)
Погода в Tabas (Иран) (227 км)
Погода в Torbat-Heydarieh (Иран) (267 км)
Погода в Kashmar (Иран) (268 км)
Погода в Zabol (Иран) (295 км)
Погода в Heart (Афганистан) (318 км)
Погода в Kerman (Иран) (360 км)
Погода в Mashhad (Иран) (380 км)
Погода в Серхетабаде (Марыйский велаят, Туркменистан) (395 км)

Пояснения к столбцам:

Ветер - указаны скорость ветра в м/с - средняя за 10 мин, порывы в срок и между сроками (в фигурных скобках) и направление, откуда дует ветер: С - северный, СВ - северо-восточный, В - восточный, ЮВ - юго-восточный, Ю - южный, ЮЗ - юго-западный, З - западный, СЗ - северо-западный.
Видимость - горизонтальная дальность видимости в метрах или километрах. При видимости от 1 до 10 км при отсутствии осадков обычно наблюдается дымка, при ухудшении видимости до 1 км и менее - туман. В сухую погоду видимость может ухудшаться дымом, пылью или мглою.
Явления - указаны атмосферные явления, наблюдавшиеся в срок или в последний час перед сроком; фигурными скобками обозначены явления, наблюдавшиеся между сроками (за 1-3 часа до срока); квадратными скобками обозначены град или гололедные отложения с указанием их диаметра в мм.
Облачность - указаны через наклонную черту общая и нижняя облачность в баллах и высота нижней границы облаков в метрах; квадратными скобками обозначены формы облаков: Ci - перистые, Cs - перисто-слоистые, Cc - перисто-кучевые, Ac - высококучевые, As - высокослоистые, Sc - слоисто-кучевые, Ns - слоисто-дождевые, Cu - кучевые, Cb - кучево-дождевые. Подробнее классификацию облаков см. в Атласе облаков (PDF).
T - Температура воздуха - температура, измеренная на высоте 2 м над землей.
Td - Температура точки росы - температура, при понижении до которой содержащийся в воздухе водяной пар достигнет насыщения.
f - Относительная влажность воздуха - влажноcть воздуха, измеренная на высоте 2 м над землей.
Te - Эффективная температура - температура, которую ощущает одетый по сезону человек в тени. Характеристика душности погоды. При расчете учитывается влияние влажности воздуха и скорости ветра на теплоощущения человека.
Tes - Эффективная температура на солнце - температура, которую ощущает человек, с поправкой на солнечный нагрев. Характеристика знойности погоды. Зависит от высоты солнца над горизонтом, облачности и скорости ветра. Ночью, в пасмурную погоду, а также при ветре 12 м/с и более поправка равна нулю.
P - Атмосферное давление - приведенное к уровню моря атмосферное давление.
Po - Атмосферное давление - измеренное на уровне метеостанции атмосферное давление.
Tmin - Минимальная температура - минимум температуры воздуха на высоте 2 м над землей.
Tmax - Максимальная температура - максимум температуры воздуха на высоте 2 м над землей.
R - Количество осадков - Количество выпавших осадков за период времени, мм. При наведении курсора мыши на число - период времени, за который выпало указанное количество осадков.
R24 - Количество осадков - Количество выпавших осадков за 24 часа, мм.
S - Снежный покров - Высота снежного покрова, см. При наведении курсора мыши на число - состояние снежного покрова и степень покрытия местности в баллах.